Location: Borotín
(49.5055°N, 14.6142°E)
Time: 10:59:59
(UTC+00:00)

SME Rocket - Pass Details

Date: 27 May 2022
Orbit: 550 x 2650 km, 99.9° (Epoch: 26 June)

Event Time Altitude Azimuth Distance (km) Brightness Sun altitude
Exits shadow 01:03:30 23° 217° (SW) 1,355 4.2 -14.0°
Maximum altitude 01:05:28 34° 265° (W) 1,113 4.1 -13.8°
Drops below altitude 10° 01:10:12 10° 331° (NNW) 2,499 6.6 -13.4°
Sets 01:13:15 0° 340° (NNW) 3,731 7.6 -13.2°
